Terminal Aerodrome Forecast
Issued by NWS

Home | Current Version | Previous Version | Text Only | Print | Product List | Glossary On
Versions: 1 2 3 4 5 6 7 8 9 10 11 12 13 14 15 16 17 18 19 20 21 22 23 24
000
FTUS46 KMFR 290118 AAA
TAFOTH
TAF AMD
KOTH 290118Z 2901/2924 01022G30KT P6SM OVC004
     FM290300 36018G24KT P6SM OVC004
     FM290600 36014KT 4SM BR SCT002 OVC004
     FM291100 35008KT 1SM BR OVC002
     FM291600 35016G24KT P6SM SCT008
     FM291900 36026G34KT P6SM SKC=

USA.gov is the U.S. government's official web portal to all federal, state and local government web resources and services.